This is the latest recevied weather packets stored in our database for station/object KA1JKB. If no packets are shown the sender has not sent any weather packets the latest 10 day(s).
| Time | Temp. | Humidity | Pressure | Rain* | Wind** | Luminosity | Snow |
|---|---|---|---|---|---|---|---|
| 1788010967 | 20.56° C | 81% | 1020.2 hPa | 0 mm | - | 589 W/m² | - |
| 1788010662 | 20° C | 84% | 1020.1 hPa | 0 mm | - | 88 W/m² | - |
| 1788010360 | 19.44° C | 85% | 1019.9 hPa | 0 mm | - | 87 W/m² | - |
| 1788010055 | 18.89° C | 87% | 1020.1 hPa | 0 mm | - | 92 W/m² | - |
| 1788009750 | 17.78° C | 89% | 1020.2 hPa | 0 mm | - | 252 W/m² | - |
| 1788009448 | 17.78° C | 93% | 1020 hPa | 0 mm | - | 174 W/m² | - |
| 1788009143 | 16.67° C | 95% | 1020.2 hPa | 0 mm | - | 94 W/m² | - |
| 1788008839 | 16.11° C | 99% | 1020 hPa | 0 mm | - | 161 W/m² | - |
| 1788008538 | 15.56° C | 99% | 1020.2 hPa | 0 mm | - | 134 W/m² | - |
| 1788008236 | 15° C | 99% | 1020.2 hPa | 0 mm | - | 120 W/m² | - |
| 1788007934 | 15° C | 99% | 1020.3 hPa | 0 mm | - | 84 W/m² | - |
| 1788007633 | 14.44° C | 99% | 1020.3 hPa | 0 mm | - | 97 W/m² | - |
| 1788007328 | 14.44° C | 99% | 1020.2 hPa | 0 mm | - | 73 W/m² | - |
| 1788007023 | 14.44° C | 99% | 1020.5 hPa | 0 mm | - | 65 W/m² | - |
| 1788006723 | 15° C | 99% | 1020.6 hPa | 0 mm | - | 69 W/m² | - |
| 1788006417 | 14.44° C | 99% | 1020.7 hPa | 0 mm | - | 66 W/m² | - |
| 1788006117 | 13.89° C | 99% | 1020.3 hPa | 0 mm | - | 58 W/m² | - |
| 1788005816 | 13.89° C | 99% | 1020.5 hPa | 0 mm | - | 55 W/m² | - |
| 1788005510 | 13.89° C | 99% | 1020.3 hPa | 0 mm | - | 53 W/m² | - |
| 1788005210 | 13.33° C | 99% | 1020.2 hPa | 0 mm | - | 56 W/m² | - |
| 1788004909 | 13.33° C | 99% | 1019.9 hPa | 0 mm | - | 52 W/m² | - |
| 1788004609 | 13.33° C | 99% | 1019.9 hPa | 0 mm | - | 48 W/m² | - |
| 1788004309 | 13.33° C | 99% | 1020.1 hPa | 0 mm | - | 42 W/m² | - |
| 1788004008 | 12.78° C | 99% | 1019.9 hPa | 0 mm | - | 40 W/m² | - |
| 1788003707 | 12.78° C | 99% | 1019.8 hPa | 0 mm | - | 37 W/m² | - |
* Rain latest hour (hover to see other rain measurements)
** Current wind speed in m/s (hover to see current wind gust speed)